This demonstration page uses our WeatherBlox Daily Observations layout. Learn more.

Left ArrowRight Arrow

39.12711, -84.51439

Hourly Observations for August 29, 2016

Temp ( °F °C ) Dew Point ( °F °C ) Humidity (%) Winds ( mph kmh ) Pressure ( in mb ) Visibility ( mi km ) Precip ( " mm )
1:53 am 01:53 Clear 70 21.1 70 21.1 100 100 NE 3 6 30.17 1022 9 14 N/A
2:53 am 02:53 Clear 69 20.6 69 20.6 100 100 NE 5 7 30.17 1022 9 14 N/A
3:53 am 03:53 Clear 69 20.6 69 20.6 100 100 N N/A 30.17 1022 10 16 N/A
4:53 am 04:53 Clear with Mist and Fog 67 19.4 67 19.4 100 100 N N/A 30.18 1022 2 3 N/A
5:07 am 05:07 Clear with Fog 67 19.4 67 19.4 100 100 N N/A 30.15 1021 1 1 N/A
5:53 am 05:53 Clear with Fog 66 18.9 66 18.9 100 100 N N/A 30.18 1022 1 1 N/A
6:24 am 06:24 Clear with Mist and Fog 66 19 66 19 100 100 N N/A 30.15 1021 3 4 N/A
6:31 am 06:31 Clear with Mist and Fog 67 19.4 67 19.4 100 100 N N/A 30.15 1021 5 8 N/A
6:34 am 06:34 Clear with Mist and Fog 66 19 66 19 100 100 N N/A 30.15 1021 2 3 N/A
6:53 am 06:53 Clear with Patchy Fog 67 19.4 67 19.4 100 100 N N/A 30.19 1022 6 10 N/A
7:53 am 07:53 Sunny 68 20 68 20 100 100 ENE 3 6 30.20 1023 7 11 N/A
8:53 am 08:53 Sunny 73 22.8 70 21.1 90 90 NE 3 6 30.22 1023 10 16 N/A
9:53 am 09:53 Sunny 75 24 72 22 89 89 VRB 3 6 30.21 1023 10 16 N/A
10:53 am 10:53 Sunny 80 26.7 72 22.2 76 76 E 7 11 30.22 1023 10 16 N/A
11:53 am 11:53 Sunny 83 28.3 73 22.8 72 72 VRB 3 6 30.21 1023 10 16 N/A
12:53 pm 12:53 Sunny 87 30.6 73 22.8 63 63 NNE 7 11 30.20 1023 10 16 N/A
1:53 pm 13:53 Mostly Sunny 88 31.1 72 22.2 59 59 NNE 8 13 30.20 1023 10 16 N/A
2:53 pm 14:53 Mostly Sunny 90 32.2 72 22.2 56 56 undefined N/A 30.18 1022 10 16 N/A
3:53 pm 15:53 Mostly Sunny 86 30 74 23.3 67 67 NE 7 11 30.15 1021 10 16 N/A
4:53 pm 16:53 Partly Cloudy 87 30.6 74 23.3 65 65 VRB 5 7 30.14 1021 10 16 N/A
5:09 pm 17:09 Partly Cloudy with Thunderstorms 86 30 72 22.2 63 63 ENE 3 6 30.12 1020 10 16 N/A
5:43 pm 17:43 Partly Cloudy 84 28.9 74 23.3 72 72 NE 3 6 30.12 1020 10 16 N/A
5:53 pm 17:53 Partly Cloudy 84 28.9 74 23.3 72 72 NE 5 7 30.13 1020 10 16 N/A
6:53 pm 18:53 Mostly Sunny 86 30 73 22.8 65 65 E 5 7 30.13 1020 10 16 N/A
7:53 pm 19:53 Sunny 80 26.7 76 24.4 87 87 N N/A 30.13 1020 10 16 N/A
8:45 pm 20:45 Mostly Clear 77 25 75 23.9 94 94 N N/A 30.12 1020 10 16 N/A
8:53 pm 20:53 Clear 76 24.4 75 23.9 97 97 N N/A 30.14 1021 10 16 N/A
9:53 pm 21:53 Clear 75 23.9 74 23.3 96 96 N N/A 30.15 1021 10 16 N/A
10:53 pm 22:53 Clear 74 23.3 74 23.3 100 100 E 3 6 30.15 1021 10 16 N/A
11:53 pm 23:53 Clear with Mist and Fog 71 21.7 71 21.7 100 100 N N/A 30.15 1021 5 8 N/A

Powered by AerisWeather